Lapse_Rate
0.5 0.1 -2.0 1.6 6.4 6.5 6.5 6.5 6.5 6.5 6.5 5.1 4.2 5.2 6.2 5.7 6.5 6.4 0.9 1.6 0.9 0.3 1.0 1.2 1.6 1.9 2.1 2.3 2.5 2.3 2.3 2.5 2.7 3.0 3.3 3.3 3.4 3.5 3.7 3.7 4.1 4.4 4.7 4.9 4.9 5.0 4.9 4.7 4.3
-0.4 2.0 0.6 1.3 6.5 6.5 6.5 6.5 6.5 6.5 5.2 4.0 4.6 4.9 5.7 6.5 3.4 1.0 1.2 1.0 1.5 0.3 0.6 0.9 1.4 1.8 2.0 2.1 2.3 2.1 2.3 2.3 2.4 2.6 2.9 3.1 3.2 3.3 3.4 3.6 3.9 4.2 4.7 4.9 4.9 4.9 5.0 4.8 4.6
1.3 1.7 2.7 6.5 6.5 6.5 6.5 6.5 6.5 6.0 4.0 4.3 5.4 5.4 4.8 5.2 2.3 0.4 1.1 0.5 0.6 0.2 0.3 0.6 1.2 1.7 1.8 1.9 2.0 1.9 1.9 1.8 1.9 2.2 2.7 3.1 3.2 3.3 3.3 3.4 3.7 4.2 4.7 5.0 4.9 4.9 4.7 4.8 5.0
2.2 1.4 2.0 6.5 6.5 6.5 6.5 6.5 6.4 6.3 6.3 5.5 4.4 6.5 5.3 4.2 1.7 2.0 0.6 0.3 0.2 -0.3 -0.1 0.2 0.9 1.4 1.7 1.7 1.8 1.7 1.4 1.6 1.6 1.8 2.4 2.8 3.0 2.9 2.8 3.2 3.6 4.0 4.5 4.7 4.6 4.6 4.5 4.7 4.8
-0.5 0.9 6.5 6.5 6.5 6.5 6.5 6.0 4.5 6.5 6.1 5.7 5.5 6.4 5.8 3.7 0.7 -0.5 -0.2 0.6 -0.5 -0.9 -0.5 0.0 0.7 1.2 1.5 1.6 1.6 1.4 1.3 1.4 1.7 1.7 2.0 2.3 2.7 2.8 2.6 2.8 3.2 3.7 3.9 3.9 3.9 4.2 4.5 4.6 4.7
2.6 2.4 6.5 6.5 6.5 6.5 6.4 4.2 4.3 6.2 5.9 5.5 5.2 5.6 5.4 2.0 0.3 -0.5 -0.0 0.1 -0.2 -1.3 -0.7 -0.1 0.4 1.1 1.4 1.4 1.4 1.1 1.1 1.3 1.6 1.7 1.8 2.0 2.1 2.5 2.6 2.7 2.9 3.2 3.4 3.5 3.7 3.9 4.3 4.6 4.8
5.5 6.5 6.5 6.5 6.5 6.5 6.5 4.9 6.2 5.8 5.6 5.9 5.1 6.5 4.9 2.8 0.7 0.3 -0.1 -0.7 -1.1 -1.2 -0.7 -0.3 0.3 1.1 1.3 1.3 1.1 1.0 1.0 1.0 1.3 1.6 1.8 1.8 1.8 2.1 2.4 2.7 2.8 2.9 3.2 3.4 3.6 3.8 4.1 4.4 4.6
1.1 6.4 6.5 6.5 6.5 6.5 5.9 5.5 4.9 5.2 5.9 4.8 4.2 6.3 5.6 2.8 0.8 -0.0 -0.5 -1.4 -1.5 -1.3 -0.8 -0.2 -0.0 0.6 0.7 0.8 1.1 0.9 1.0 1.0 1.1 1.3 1.6 1.6 1.6 1.8 1.9 2.4 2.5 2.7 3.0 3.3 3.5 3.6 3.8 4.2 4.2
2.7 6.5 6.5 6.5 6.5 6.5 5.0 6.3 5.4 4.5 5.0 5.7 5.2 2.4 2.6 1.5 0.8 0.4 -0.3 -0.8 -1.1 -1.0 -1.0 -0.3 -0.1 -0.2 -0.1 0.0 0.4 0.8 1.0 1.0 1.1 1.1 1.2 1.3 0.8 1.2 1.5 1.9 2.1 2.4 2.6 3.0 3.3 3.4 3.6 3.6 3.5
5.1 6.5 6.5 6.5 6.5 6.5 5.8 5.8 4.9 5.7 5.7 5.5 3.8 3.2 1.6 1.1 1.3 0.7 0.4 0.5 -0.1 -0.9 -1.4 -0.8 -0.4 -0.2 -0.2 0.4 0.0 -0.0 0.5 0.6 0.4 0.3 0.3 0.2 0.5 0.6 1.0 1.5 1.8 2.2 2.4 2.7 2.9 3.1 3.2 3.0 3.0
5.7 6.5 6.5 5.9 5.1 4.5 5.5 5.7 4.3 5.3 6.5 4.4 3.7 2.3 2.1 1.8 2.1 1.3 0.8 0.2 -1.4 -0.9 -0.9 -1.6 -0.9 -0.5 -0.2 0.2 0.1 -0.4 -0.3 -0.3 -0.3 -0.3 -0.2 -0.2 -0.0 0.6 0.6 0.7 1.0 1.4 2.0 1.9 2.2 2.3 2.3 2.3 2.1
6.4 5.3 5.6 5.0 5.3 5.0 6.3 4.4 6.1 4.8 5.6 4.7 2.2 1.8 2.6 2.8 2.4 1.6 0.8 0.5 -0.1 -0.9 -1.5 -1.6 -1.6 -1.3 -0.9 -0.3 0.2 -0.3 -0.3 -0.6 -0.5 -0.7 -0.7 -0.6 -0.7 -0.2 0.2 0.1 -0.0 0.1 0.6 0.5 1.0 0.8 1.4 1.4 1.6
6.5 6.4 5.0 4.5 3.9 3.5 3.7 5.4 5.7 5.3 3.3 3.0 3.0 3.6 2.9 3.0 2.7 2.3 1.3 0.5 0.1 -0.3 -1.3 -1.7 -1.9 -1.7 -1.2 -0.9 -0.4 -0.7 -0.8 -0.6 -0.4 -0.6 -0.7 -0.7 -0.9 -0.7 -0.3 -0.4 -0.2 -0.4 -0.1 -0.1 -0.3 0.1 0.4 0.6 1.2
5.9 5.9 4.8 4.5 4.3 4.6 6.3 5.5 5.6 3.7 2.5 3.4 3.3 3.2 3.1 3.3 2.8 2.8 2.7 1.0 0.2 0.1 -0.9 -1.2 -1.6 -1.5 -1.1 -1.2 -1.1 -1.0 -0.8 -0.4 -0.5 -0.5 -0.5 -0.7 -0.5 -0.3 -0.7 -0.7 -0.4 -0.6 -0.4 -0.2 -0.1 -0.4 -0.4 -0.3 0.9
5.6 6.5 6.5 6.1 5.3 6.1 4.5 6.5 6.5 3.3 3.4 3.6 2.9 2.1 3.2 3.3 3.4 3.2 2.4 1.6 0.7 0.1 -0.5 -1.4 -1.6 -1.1 -1.3 -1.1 -1.5 -0.8 -0.8 -0.6 -0.5 -0.2 -0.1 -0.1 -0.2 -0.5 0.1 -0.5 -0.5 -0.3 -0.6 -0.1 -0.0 -0.0 0.1 -0.5 0.3
6.5 6.5 6.5 6.5 6.3 5.4 5.4 6.5 6.5 2.1 3.4 2.5 1.5 1.4 1.7 3.0 2.6 3.1 2.8 2.9 2.0 1.7 -0.5 -0.9 0.2 -1.2 -1.0 -0.9 -1.3 -0.7 -0.7 -0.7 -0.4 -0.1 0.0 0.2 0.4 0.2 0.2 0.3 0.2 0.3 -0.0 0.0 -0.1 -0.0 -0.1 -0.3 -0.1
6.5 6.5 6.5 6.5 6.1 6.5 6.5 6.5 6.5 2.7 3.0 2.8 1.4 0.1 -0.1 0.5 1.5 2.1 3.1 2.1 0.5 2.3 1.1 -0.8 -0.5 -0.7 -0.8 -0.2 -1.0 -0.7 -0.9 -0.6 -0.2 0.2 0.3 0.5 0.7 0.9 1.0 1.1 1.1 0.6 1.0 0.9 1.0 0.4 1.2 1.0 0.8
6.5 6.5 6.5 6.5 6.5 6.5 6.5 6.5 6.5 2.7 3.6 3.1 1.9 0.6 0.3 -0.4 -0.5 1.0 0.5 1.2 0.5 1.9 2.2 -0.0 -1.0 -1.5 -0.4 0.4 -0.3 -0.2 -0.5 -0.1 0.2 0.0 0.5 0.8 1.2 1.4 1.4 1.7 1.6 1.4 1.6 1.7 1.8 1.8 1.6 1.9 2.4
6.5 6.5 6.5 6.5 6.5 6.5 6.5 6.5 6.5 4.5 4.7 3.5 1.7 1.7 0.2 -0.5 0.9 -1.5 -0.9 -1.2 -3.1 -2.3 1.1 -0.5 -2.0 -2.1 -0.9 0.5 0.3 -0.3 -0.7 -0.7 -0.2 0.2 0.9 1.0 1.8 1.8 2.0 2.4 1.2 1.8 2.1 2.6 2.2 2.8 2.5 2.6 2.0
6.5 6.5 6.5 6.5 6.5 6.5 6.5 6.5 6.5 6.5 5.7 4.0 3.6 2.5 0.7 -0.3 -0.4 -0.5 -0.6 -1.6 -3.6 -2.5 -1.2 -1.5 -2.0 -2.0 -2.1 -0.9 0.1 0.9 0.2 0.1 0.5 0.6 0.8 1.4 2.0 2.4 2.4 2.7 2.0 2.3 2.5 2.5 2.6 3.1 2.3 2.8 1.8
6.5 6.5 6.5 6.5 6.5 6.5 6.5 6.5 6.5 6.4 5.3 2.9 1.3 2.2 2.3 0.5 -0.4 -0.3 -0.3 -1.1 -2.7 -3.8 -2.4 -1.6 -1.8 -2.0 -1.8 -1.2 -0.2 -1.2 -0.4 -0.7 -0.1 -0.3 0.8 1.0 2.2 2.7 2.8 2.8 3.1 2.7 3.4 3.4 2.9 3.0 3.8 3.5 1.9
6.5 6.5 6.5 6.5 6.5 6.5 6.5 6.5 6.5 6.5 6.5 6.5 3.6 2.3 1.6 0.5 -1.0 -1.3 -0.8 -1.4 -3.3 -3.3 -2.7 -1.5 -1.5 -1.8 -1.8 -1.1 -0.7 -0.3 0.3 0.4 -0.1 0.4 0.1 0.6 1.5 2.5 3.1 3.2 3.0 3.1 3.0 3.5 2.9 2.9 3.7 3.2 3.5
6.5 6.5 6.5 6.5 6.5 6.5 6.5 6.5 6.5 6.5 6.5 6.5 6.4 2.0 0.2 -0.7 -0.8 -1.3 -2.1 -1.8 -0.0 -3.8 -4.8 -2.8 -2.1 -1.9 -1.6 -1.7 -0.7 -0.1 1.2 1.1 -0.4 -0.5 -0.2 0.4 0.6 2.2 2.9 3.3 2.9 3.1 3.0 3.3 3.0 2.5 3.2 3.2 2.6
6.5 6.5 6.5 6.5 6.5 6.5 6.5 6.5 6.5 6.5 6.5 6.5 6.2 2.5 1.2 0.0 -1.4 -2.3 -2.6 -3.2 -4.3 -6.8 -5.9 -4.4 -3.3 -2.7 -1.7 -1.4 -1.3 -0.4 0.4 -0.1 -0.0 0.4 1.1 1.1 1.3 1.9 2.7 3.0 3.4 3.2 3.1 3.1 2.4 2.8 2.9 2.9 3.1
6.5 6.5 6.5 6.5 6.5 6.5 6.5 6.5 6.5 6.5 6.5 6.5 6.5 3.0 1.7 0.8 -1.2 -1.8 -2.2 -4.6 -5.3 -6.3 -6.5 -4.5 -3.5 -3.4 -2.5 -1.1 -0.6 -0.7 0.1 -0.0 0.6 1.0 2.1 1.6 1.7 1.6 2.2 2.2 2.5 2.8 2.6 3.1 2.8 2.3 2.5 2.6 3.0
6.5 6.5 6.5 6.5 6.5 6.5 6.5 6.5 6.5 6.5 6.1 4.3 2.8 2.1 1.5 0.2 -1.2 -1.5 -2.6 -4.3 -4.9 -4.9 -5.3 -4.3 -4.1 -3.5 -3.0 -2.0 -1.8 -1.3 -0.2 0.2 1.2 1.4 2.1 2.4 2.5 2.5 2.1 2.0 2.7 2.4 2.3 2.1 2.1 2.6 3.1 2.6 2.6
6.5 6.5 6.5 6.5 6.5 6.5 6.5 6.5 6.5 6.5 6.5 6.5 4.9 3.3 2.1 1.2 0.2 -1.3 -3.1 -4.0 -4.6 -4.3 -4.1 -3.8 -3.8 -2.3 -2.8 -3.7 -3.6 -2.4 -0.7 -0.1 0.4 0.3 1.2 2.2 2.0 1.3 1.4 1.6 1.9 1.9 1.9 2.2 2.5 2.5 1.8 2.2 2.5
6.5 6.5 6.5 6.5 6.5 6.5 6.5 6.5 6.5 6.5 6.5 6.5 6.5 5.2 1.6 1.2 1.7 -1.2 -2.9 -2.8 -3.5 -3.5 -4.3 -3.9 -2.4 -2.2 -3.1 -3.1 -2.5 -1.8 -1.5 -1.1 -0.8 -0.3 0.7 1.0 0.9 0.8 1.7 1.9 1.8 1.5 1.9 1.6 1.8 1.9 1.4 2.0 2.0
6.5 6.5 6.5 6.5 6.5 6.5 6.5 6.5 6.5 6.5 6.5 6.5 6.5 4.0 1.7 0.2 -1.3 -0.6 -2.5 -2.5 -1.9 -3.7 -2.7 -2.6 -2.4 -2.7 -3.1 -2.7 -2.1 -1.6 -1.5 -1.1 -0.9 -0.0 0.5 1.1 0.9 1.2 1.9 1.7 2.6 2.4 2.1 1.6 2.0 1.9 1.9 1.7 2.2
6.5 6.5 6.5 6.5 6.5 6.5 6.5 6.5 6.5 6.5 6.5 6.5 6.0 4.0 2.0 0.3 0.0 -0.5 -1.2 -1.3 -1.6 -1.5 -1.8 -2.3 -3.3 -3.2 -2.7 -1.7 -1.0 -1.4 -1.2 -1.0 -0.6 0.5 1.1 1.2 1.9 1.4 1.7 2.0 2.7 2.3 2.2 1.9 1.5 1.4 2.2 1.4 1.9
Wind_Speed
6 7 2 3 4 5 2 5 3 4 1 4 8 5 8 3 5 4 2 9 16 16 19 20 21 22 21 21 20 22 22 22 21 20 20 20 21 20 19 19 19 18 18 18 19 19 19 20 18
5 1 4 2 4 3 5 4 6 8 6 9 7 4 3 2 3 6 7 7 16 16 19 19 22 23 22 22 20 21 22 21 20 19 19 19 19 19 19 18 17 18 18 19 19 19 19 17 17
3 2 3 4 3 3 3 3 4 4 14 6 7 0 6 7 2 8 5 15 14 13 18 19 22 23 23 22 21 21 21 21 20 19 18 18 18 18 18 17 16 15 17 19 19 18 17 18 18
2 4 4 4 2 5 4 1 2 6 4 3 5 6 2 3 9 7 15 16 15 11 15 20 22 23 23 23 21 22 21 21 21 20 18 16 16 18 18 17 15 16 16 17 17 16 17 18 15
4 3 4 2 4 5 6 4 6 4 3 3 0 4 3 3 8 15 15 15 16 11 13 19 22 23 23 23 22 22 22 21 20 20 19 17 15 15 17 18 16 14 15 16 16 15 15 13 12
4 3 4 0 5 6 7 6 10 3 1 3 5 5 2 3 12 11 12 11 11 13 14 18 20 21 23 22 22 23 23 22 20 19 20 19 17 15 15 15 16 15 14 16 17 16 14 11 9
4 4 3 3 4 6 5 5 4 8 6 4 5 4 1 2 7 10 8 8 7 9 13 14 17 19 22 23 24 24 24 23 22 20 19 19 19 17 15 14 15 15 13 13 15 14 13 10 7
4 4 3 4 2 5 4 6 5 5 6 4 4 5 6 6 10 10 8 7 7 7 10 13 13 14 16 18 23 24 24 24 24 23 20 20 19 19 17 15 14 15 15 12 11 11 9 7 5
4 4 2 4 4 3 5 5 2 2 7 1 4 6 6 18 15 10 8 4 5 5 9 12 14 13 14 15 18 20 22 23 23 22 23 21 16 17 18 17 15 14 15 14 12 10 8 6 4
4 4 10 6 2 4 6 4 4 3 1 2 3 7 17 19 18 16 13 12 10 11 9 11 13 13 13 13 15 15 16 15 15 16 16 15 17 16 15 18 17 15 14 14 12 10 8 6 6
4 5 5 6 6 4 6 4 2 7 2 6 8 12 16 17 13 14 14 17 22 15 9 10 12 14 14 9 14 12 13 13 13 16 16 15 14 13 12 12 13 15 15 14 12 10 8 8 7
1 7 5 6 3 6 6 7 2 5 5 4 8 19 16 15 16 17 15 15 12 13 14 12 11 12 12 11 11 12 11 13 11 14 17 13 9 10 10 9 11 12 15 13 12 11 11 10 9
7 5 5 7 10 8 6 9 8 5 6 4 8 10 17 17 18 16 18 16 12 13 15 16 13 13 12 10 10 10 9 12 14 14 16 15 11 6 10 9 10 10 14 13 11 10 9 9 9
4 4 8 5 9 6 5 8 5 9 4 6 10 10 14 17 19 16 11 11 14 14 15 14 16 14 12 11 11 8 12 13 12 13 16 17 14 11 10 7 8 9 13 13 12 10 7 7 8
4 5 6 5 4 7 3 9 6 9 1 7 8 12 10 16 15 17 19 17 18 15 15 18 17 15 15 14 11 8 11 13 10 12 16 19 17 13 12 7 6 11 13 13 10 8 7 4 5
3 2 3 3 7 6 9 10 5 11 5 10 9 9 9 15 15 17 18 15 15 12 16 16 14 17 16 15 11 8 11 12 12 13 14 18 18 17 13 6 7 12 12 11 6 4 4 5 4
4 6 6 2 7 3 7 3 7 5 5 10 10 11 10 12 12 13 16 15 12 17 15 16 17 18 18 15 10 9 9 8 12 13 13 17 18 18 15 8 9 13 9 6 6 4 4 4 4
6 4 5 6 5 7 9 10 9 11 8 12 12 11 10 10 15 15 16 18 12 17 17 15 15 17 17 10 7 7 6 8 12 11 14 17 19 19 16 11 9 13 7 6 5 5 6 4 5
3 4 6 3 5 3 7 7 12 10 5 10 11 14 11 12 18 10 11 14 9 10 15 15 17 16 13 11 11 10 12 11 10 10 17 18 19 20 17 8 7 10 9 9 9 6 6 7 3
7 7 10 6 8 4 7 11 11 10 9 10 14 13 12 7 8 9 8 7 9 13 17 15 17 15 15 13 13 8 9 8 9 8 9 17 18 19 15 13 10 11 8 8 8 9 3 4 5
12 14 13 9 6 6 3 13 7 10 5 7 9 11 9 12 12 9 8 10 9 10 14 16 18 19 18 16 9 3 4 3 5 7 9 11 18 18 18 15 12 11 10 9 9 9 11 6 5
18 10 6 5 4 9 7 12 7 9 10 8 9 8 11 10 8 8 9 8 10 13 13 15 16 17 16 15 12 16 12 9 10 11 9 9 15 15 17 14 12 12 10 11 10 9 9 6 7
16 7 9 8 10 3 11 4 11 7 10 12 10 10 10 11 12 11 10 11 13 9 12 13 13 13 14 16 15 12 12 10 3 4 8 9 9 12 13 14 13 12 10 11 10 10 12 9 5
5 7 5 5 4 7 20 11 19 10 10 6 6 9 10 11 10 10 10 9 9 7 9 11 14 14 14 15 14 16 16 9 7 6 8 7 7 9 12 13 13 12 11 11 11 12 13 12 11
9 8 5 6 3 15 16 7 23 5 7 13 12 11 11 11 7 7 8 7 8 9 10 11 14 13 14 16 15 15 14 11 12 10 9 8 7 5 10 11 11 10 12 11 9 9 10 11 10
22 17 7 10 11 19 6 10 19 14 20 10 9 9 9 10 8 9 9 8 8 9 11 12 14 11 11 13 14 11 10 7 8 8 7 8 8 9 9 11 10 12 10 9 10 8 8 8 8
13 20 25 4 2 0 5 6 10 3 8 7 9 8 9 12 13 13 9 9 8 9 12 14 12 8 9 9 7 7 8 8 8 7 6 6 6 5 7 10 11 10 10 10 10 8 7 6 7
20 10 15 11 12 11 6 6 9 11 18 13 12 11 10 13 16 9 9 12 11 8 5 8 7 9 7 7 6 5 7 6 6 5 7 6 5 5 6 7 8 8 8 8 8 6 7 7 3
18 19 14 6 15 14 17 14 7 10 8 12 13 9 8 11 12 9 10 11 10 7 8 8 8 9 7 6 6 6 5 6 6 5 5 5 4 5 6 7 6 8 8 7 6 6 7 8 7
10 20 22 13 14 11 16 19 4 12 14 15 13 9 8 6 8 3 5 9 11 10 8 9 8 10 11 11 10 8 7 6 6 5 5 5 5 5 5 6 6 6 6 7 10 9 6 8 6
Wind_Direction
328 325 143 40 43 58 304 263 179 160 217 230 137 142 178 143 161 202 318 152 133 146 157 155 150 141 136 131 128 125 122 120 119 120 120 120 117 115 111 108 108 109 108 107 106 107 108 111 109
325 140 46 81 84 54 287 252 198 199 196 118 89 71 81 86 122 131 115 154 144 145 154 156 154 146 142 138 137 132 128 125 121 120 122 122 120 116 113 112 114 118 117 115 115 114 113 113 113
281 53 78 90 94 156 215 265 273 145 140 154 124 158 159 161 56 153 124 140 136 143 154 159 156 148 146 144 143 138 134 131 127 125 124 123 122 121 119 121 119 118 120 120 120 120 119 119 122
47 9 32 83 212 251 216 333 239 151 260 270 117 89 54 196 153 164 137 139 134 141 153 159 158 152 151 149 148 143 142 139 137 133 128 129 131 131 130 128 129 131 127 124 124 127 130 129 120
35 58 52 44 267 271 258 236 168 251 197 160 306 132 49 28 96 127 139 143 141 144 152 160 160 157 155 155 153 149 147 146 143 140 137 136 137 138 139 139 139 138 135 133 133 136 133 129 124
32 96 55 226 278 275 285 241 144 234 261 163 99 94 133 90 122 137 138 143 148 147 152 162 164 163 159 160 157 154 152 152 152 152 148 147 148 150 148 147 146 147 147 145 142 141 139 137 137
109 81 202 223 255 305 275 290 126 175 157 237 142 94 43 145 118 127 121 113 126 141 151 163 168 169 165 164 162 160 158 158 160 161 157 158 159 158 161 159 156 157 158 156 149 149 148 154 147
105 89 156 256 228 272 289 309 137 140 189 110 142 167 189 177 131 103 97 107 121 142 158 165 169 170 170 169 168 166 166 165 166 166 168 167 166 162 167 166 169 168 167 169 160 161 161 169 165
125 60 198 250 192 256 323 339 38 31 130 114 157 158 163 133 124 113 114 95 125 163 173 172 173 175 173 169 172 171 172 171 171 170 172 170 168 166 170 170 177 177 176 176 180 181 183 202 219
111 147 207 229 283 313 305 300 325 84 46 347 52 62 126 142 152 156 166 170 180 188 189 180 177 178 175 176 171 170 177 176 175 174 174 169 169 170 174 175 180 181 184 185 190 197 203 218 248
173 206 226 265 276 278 284 285 304 124 244 224 184 150 150 155 166 170 180 182 188 186 181 188 179 175 179 182 176 174 175 176 182 176 172 175 169 171 175 174 182 179 186 187 191 205 219 239 255
209 240 243 279 306 332 294 285 244 175 208 280 186 163 157 170 177 181 189 194 182 183 186 185 184 178 181 171 183 183 180 180 183 184 175 172 170 176 179 181 183 178 184 184 189 199 216 235 253
181 232 258 276 309 277 275 256 243 238 226 96 118 167 174 181 192 196 196 194 182 194 190 189 184 186 181 173 182 184 188 187 187 182 184 179 177 180 181 184 181 188 186 188 187 198 208 231 240
209 228 281 299 290 272 273 258 174 264 130 145 154 199 195 192 196 203 200 200 192 193 196 185 189 188 183 186 184 188 186 189 186 189 188 186 185 184 183 187 188 190 192 198 194 198 198 220 221
255 283 309 199 231 239 170 289 195 238 191 184 207 201 210 212 202 210 205 200 200 200 188 192 189 185 189 190 185 187 189 183 191 196 193 191 186 184 191 186 191 197 195 197 201 214 213 216 222
279 196 223 195 162 250 141 262 263 259 201 251 260 210 220 224 219 214 224 212 211 198 189 188 187 190 191 191 187 188 187 187 193 196 195 197 194 188 187 193 198 192 190 191 189 188 218 233 205
238 238 214 295 192 186 181 218 247 261 243 265 254 262 210 235 237 231 225 223 195 203 193 186 189 189 194 193 186 187 180 190 195 195 198 199 199 195 193 198 199 185 193 196 194 193 191 222 224
218 232 251 203 226 179 245 252 256 271 214 232 250 259 252 251 230 228 218 228 195 203 202 191 191 192 188 185 175 181 182 195 196 198 203 198 202 199 197 201 194 186 191 199 205 197 194 195 213
154 210 257 250 252 203 241 244 272 269 229 257 258 257 245 244 258 224 211 218 197 184 198 191 185 191 177 183 184 188 200 197 203 204 202 199 203 203 202 205 189 191 198 202 194 200 199 223 185
232 243 254 288 266 189 279 263 258 264 257 242 256 254 240 251 264 242 230 202 188 189 190 185 194 182 190 190 197 197 193 208 206 205 206 203 203 203 203 205 201 198 198 201 196 192 163 209 175
223 226 241 244 326 279 325 285 246 268 227 260 259 242 237 229 241 248 234 222 201 193 191 188 190 188 192 194 179 119 115 98 186 204 205 203 199 204 206 205 205 198 202 205 201 195 206 200 201
230 199 216 202 203 248 150 270 216 234 255 232 261 238 237 238 244 247 250 238 212 217 196 195 192 190 187 185 183 187 192 191 210 206 204 200 202 205 206 206 204 203 201 207 200 196 202 169 203
240 177 190 197 242 17 262 294 257 174 254 253 242 248 240 237 231 238 237 236 245 200 192 191 186 185 181 180 189 189 200 213 170 170 185 198 201 209 208 207 202 203 204 209 195 191 200 206 175
206 240 224 211 203 231 241 203 263 227 215 253 227 242 247 253 249 239 245 245 242 195 174 177 175 181 178 178 183 193 203 196 181 184 192 199 201 207 211 210 207 213 212 211 204 197 199 198 211
212 200 227 229 202 233 231 198 243 268 228 210 215 219 242 257 265 261 244 224 216 192 174 172 174 177 179 180 188 197 203 195 195 189 195 185 196 202 212 196 206 207 210 213 202 194 199 200 204
216 199 182 207 214 237 155 213 237 219 240 244 224 228 245 262 256 246 236 221 205 187 172 166 171 170 177 180 192 195 197 196 201 196 195 199 201 205 200 204 208 211 201 201 202 205 206 189 202
231 222 219 254 219 137 212 253 284 238 224 233 252 251 257 263 258 233 216 200 190 190 179 166 155 158 173 177 174 187 192 195 199 192 192 200 191 182 185 196 200 196 188 189 190 191 180 181 181
227 215 220 225 229 234 250 245 231 222 240 268 265 252 256 281 273 222 196 196 189 180 168 131 142 156 157 156 166 178 182 179 172 164 186 183 170 157 174 192 199 192 192 177 176 180 173 157 168
220 229 242 239 218 228 241 247 204 227 227 228 247 245 257 278 269 228 201 190 175 143 162 151 151 150 152 154 159 160 160 167 162 175 178 177 149 162 176 177 189 184 177 171 182 184 171 154 160
225 227 225 227 229 228 232 246 281 217 239 248 248 267 286 279 282 226 174 161 159 162 166 165 162 161 170 176 175 170 161 157 153 161 165 155 170 168 166 169 171 171 170 176 168 153 172 143 153